GALAXY 25 (G-25)

Last updated on Nov. 14, 2019, 4:21 a.m. UTC

1 24812U 97026A   19317.06844193  .00000170  00000-0  00000+0 0  9994
2 24812   1.4143  92.1291 0003202 135.3542 241.9449  1.00269793 82220
UTC
Height (km)
Latitude
Longitude
Inclination
Orbital Period
UTC large
Height (km)
Speed (km/s)
/
Latitude / Longitude
Inclination (degrees)
Orbital Period (minutes)
Azimuth
Elevation
Range (km)
Doppler Factor
iOS Compass Heading
iOS Angle

Next 30 passes for location: Hong Kong

Rise time Rise Azimuth (degrees) Set time Set Azimuth (degrees) Duration Max altitude (degrees)

No matching passes for this satellites